Starlink 5448

operational
NORAD ID: 54770 Int'l Des: 2022-175 Owner: SPXS Country: US Constellation: starlink
LEOCIRCULAR

About Starlink 5448

Description loading...

Live Position

Loading 3D Globe...

Upcoming Passes

Altitude History

Altitude vs Time

uPlot chart will show altitude changes over time

Two-Line Element Set

1 54770U 22175N 26035.41527433 -.00000171 00000-0 73247-5 0 9993
2 54770 53.2152 178.6776 0001447 94.2682 265.8476 15.08837478175105
Epoch: Feb 4, 2026 • Age: 11 hours

Current Status

Altitude 556.3 km
Velocity 7.58 km/s
Sub-Earth Point -46.15°S, 36.33°W
Launch Date Dec 17, 2022
Age 3.1 years
Type internet

Technical Details

Classification Payload
Mass 305.00 kg
Dry Mass 290.00 kg
Total Mass 305.00 kg
Length 0.20 m
Diameter 2.80 m
Span 9.00 m
Shape Box + pan
Manufacturer SPXS
Bus Type Starlink
Phase Status In Orbit
Owner/State SPXS/US

Large Constellations

Loading constellations...